Vorticity
nan nan nan nan nan nan nan nan nan nan nan nan nan nan nan nan nan nan nan nan nan nan nan nan nan nan nan nan nan nan nan nan nan nan nan nan nan nan nan nan nan nan nan nan nan nan nan nan nan
nan 2 4 6 8 6 7 8 9 8 6 7 6 6 5 7 11 11 9 8 7 7 7 7 7 6 5 6 5 5 6 4 4 5 5 5 5 4 4 4 4 6 6 5 6 6 6 6 nan
nan 2 5 7 6 6 8 8 10 11 5 2 5 6 8 10 12 5 5 8 7 8 8 11 7 5 5 5 5 6 5 5 5 4 5 4 4 5 4 4 4 5 6 5 6 6 5 5 nan
nan 6 9 9 8 8 13 10 6 2 2 10 6 4 12 10 9 10 9 4 5 6 9 11 6 5 5 4 6 5 5 5 5 4 4 3 4 5 4 4 5 6 5 5 5 6 6 6 nan
nan 7 7 7 10 12 9 6 4 7 11 10 5 7 6 7 13 10 4 4 6 7 9 7 7 5 5 5 5 5 5 6 6 4 4 4 4 4 3 3 5 4 4 5 5 6 6 6 nan
nan 7 5 7 9 8 6 6 7 9 11 7 6 5 7 13 6 3 5 6 6 6 7 8 7 4 4 5 4 5 5 5 5 5 5 4 3 4 4 4 4 4 4 3 3 3 4 5 nan
nan 7 6 8 6 7 8 6 9 7 2 5 4 3 9 8 6 5 4 8 8 6 4 5 7 7 5 4 4 4 4 5 4 4 4 4 5 4 4 4 3 4 4 4 5 3 3 4 nan
nan 7 6 9 8 9 8 7 5 2 6 11 5 6 11 10 6 3 6 7 6 5 6 6 6 5 6 8 7 4 4 4 4 4 4 4 6 4 4 4 4 4 5 5 4 4 4 4 nan
nan 6 7 8 9 10 10 5 5 6 6 2 10 14 15 11 5 5 6 5 6 7 5 6 7 6 6 6 8 8 5 5 5 4 4 3 4 7 7 6 5 4 4 4 5 5 5 5 nan
nan 7 6 5 9 17 7 5 9 10 0 2 12 14 16 8 3 5 6 5 4 6 5 6 6 7 5 5 7 7 6 6 7 6 6 7 6 7 8 7 8 10 8 9 9 8 7 8 nan
nan 1 5 8 13 11 4 6 11 4 1 17 11 5 7 4 4 5 5 6 6 4 6 7 6 7 5 6 7 7 7 7 7 7 7 5 7 7 8 10 9 9 11 10 9 9 10 9 nan
nan 9 5 4 8 10 7 5 6 -1 17 18 9 8 5 4 5 4 5 6 6 6 6 6 7 7 5 6 8 7 6 7 7 8 7 7 7 9 8 7 8 7 7 8 6 6 6 8 nan
nan 7 5 8 13 8 6 7 6 11 16 11 9 7 4 5 4 6 6 5 6 8 7 6 5 6 7 6 6 7 7 7 7 8 7 7 8 8 8 7 7 8 8 8 7 6 6 9 nan
nan 1 10 18 19 14 13 8 5 15 11 8 5 5 7 6 4 4 6 7 7 7 7 7 6 6 7 7 6 7 6 7 7 7 8 8 8 7 6 7 8 7 7 7 8 7 8 9 nan
nan 7 6 8 15 18 9 5 14 14 7 6 5 3 6 8 7 5 5 5 6 8 10 8 6 6 6 6 7 7 8 8 7 8 10 10 7 7 7 6 6 7 8 8 7 8 9 10 nan
nan 4 4 4 11 9 8 12 12 11 7 4 6 7 5 7 7 7 8 8 6 8 9 9 9 6 6 6 7 7 8 9 8 9 11 10 7 7 7 6 7 10 10 9 9 9 9 8 nan
nan 6 7 8 12 8 8 13 13 10 6 6 6 7 7 7 5 7 10 10 7 8 9 9 9 8 7 7 7 8 8 8 11 10 9 8 7 7 7 8 10 11 10 9 8 8 8 8 nan
nan 11 9 6 4 12 7 10 14 10 9 8 5 8 9 8 7 9 9 9 9 7 7 8 9 9 8 7 7 8 8 9 10 8 8 7 9 9 6 8 12 9 8 8 8 8 8 9 nan
nan 10 1 9 7 7 14 16 4 5 8 7 9 8 10 12 12 11 13 11 8 8 8 8 6 8 6 7 8 10 9 7 8 11 8 8 8 9 9 9 9 8 8 9 7 7 8 8 nan
nan 5 6 13 12 6 11 7 11 10 7 7 8 9 7 10 13 13 13 12 10 7 5 6 6 6 4 5 9 9 10 9 9 9 10 10 8 7 8 10 8 7 8 8 7 7 8 10 nan
nan 10 10 10 9 5 9 7 9 10 10 11 9 10 11 10 9 10 10 9 8 7 8 7 8 5 5 6 5 7 8 9 9 10 12 10 9 8 8 8 8 7 7 8 8 8 7 9 nan
nan 19 10 7 7 5 5 11 4 7 7 6 8 10 11 11 8 9 11 11 7 7 7 8 8 7 7 7 6 8 7 7 8 8 9 11 10 8 9 9 7 7 7 8 8 8 8 8 nan
nan 16 7 3 4 7 6 12 5 9 12 6 3 5 5 10 12 12 10 10 8 9 8 8 8 6 8 7 6 6 6 5 8 10 9 9 9 11 9 9 8 8 7 8 8 8 8 8 nan
nan 2 6 11 7 5 11 8 8 9 5 7 8 9 7 10 13 10 10 9 9 8 10 9 9 6 6 7 8 8 6 6 6 8 9 9 10 10 9 9 8 8 8 8 8 8 8 8 nan
nan 6 5 7 12 8 8 9 10 6 9 8 11 10 8 7 10 13 11 8 9 8 6 7 10 8 6 6 7 8 8 9 7 7 9 9 8 9 11 8 8 8 9 8 9 8 8 8 nan
nan 11 7 11 8 10 8 7 12 7 7 11 9 11 9 12 10 12 13 10 8 8 6 7 7 8 8 6 7 8 8 7 9 8 9 9 8 9 10 8 8 8 9 8 8 8 9 8 nan
nan 8 11 6 8 13 8 5 14 16 14 8 9 15 10 10 12 10 13 14 9 10 10 7 5 5 8 8 7 8 8 8 8 8 7 8 8 9 10 9 8 9 9 9 8 7 9 8 nan
nan 7 5 10 13 5 10 12 9 6 15 20 17 5 10 8 14 12 11 13 11 8 9 9 10 10 7 8 6 8 8 8 8 9 9 8 8 8 10 10 9 8 9 10 8 7 9 8 nan
nan 9 12 14 9 11 9 10 12 5 5 13 7 8 9 6 8 11 12 14 14 9 10 8 8 8 8 9 9 8 9 9 9 7 8 9 9 9 9 10 9 9 8 10 7 8 10 8 nan
nan nan nan nan nan nan nan nan nan nan nan nan nan nan nan nan nan nan nan nan nan nan nan nan nan nan nan nan nan nan nan nan nan nan nan nan nan nan nan nan nan nan nan nan nan nan nan nan nan
CAPE
1046 938 1013 1183 266 44 38 14 18 39 35 1 3 0 1 11 0 0 0 0 11 305 1019 1411 2162 1624 1524 1543 1559 1689 1624 1665 1996 2234 2219 1871 1905 1921 1846 1514 1384 1536 1421 1472 1411 1135 1529 1529 1675
836 839 1161 1242 25 26 40 25 21 0 0 0 0 0 0 1 0 0 0 7 122 925 722 1187 2206 2075 1761 1650 1759 1806 1400 1533 1770 1945 2070 1952 1966 1763 1671 1522 1365 1410 1214 1565 1318 1350 1509 1317 874
891 1407 1077 356 55 18 60 36 11 0 9 0 0 0 0 0 0 0 0 62 319 912 1090 1351 1961 2144 1851 1794 1488 1433 1545 1582 1752 1750 1615 1391 1412 1672 1870 1713 1453 1695 1241 998 1299 1328 1044 1075 976
1674 36 703 493 99 0 29 3 0 32 15 3 0 0 0 0 0 11 66 105 401 797 1412 1666 1562 1390 1378 1693 1554 1435 1523 1634 1648 1733 1482 1567 1890 1694 1073 1020 1293 1709 1427 1397 978 602 629 498 573
16 1 2 5 1 18 8 23 69 72 19 17 7 1 0 6 13 64 71 215 373 802 1284 1093 2125 1716 1475 1533 1639 1374 1433 1560 1424 1495 1430 1389 1578 1462 1720 1133 713 666 704 945 1184 1033 973 1046 522
1 0 11 19 0 129 148 77 11 74 89 40 34 34 31 74 67 106 232 413 908 1195 1173 1060 1614 1590 1343 1506 1396 1678 1380 1519 1686 1630 1656 1592 1515 1488 1378 958 993 1091 1155 906 665 641 634 768 702
4 0 75 158 16 169 192 106 92 81 108 118 71 83 62 108 93 226 481 624 988 1152 1051 1034 1199 1155 1292 1271 1413 1365 1633 1625 1470 1480 1427 1440 1346 1576 1146 1259 1094 1098 1008 1231 1088 850 604 513 462
27 175 153 47 326 558 239 201 163 261 358 172 136 176 60 55 285 425 462 577 844 900 907 792 671 537 767 1028 1508 1321 1565 1331 1217 1224 1179 1151 1157 1310 1258 1371 1201 988 819 767 805 754 732 744 791
40 7 45 46 109 420 478 216 506 527 343 219 506 321 172 126 321 611 580 486 575 661 758 586 518 669 780 844 1219 1272 1393 1338 1503 1349 1120 945 290 246 535 753 1090 967 851 754 816 979 992 972 1274
56 24 64 270 23 587 432 533 564 512 504 635 402 449 359 387 619 686 601 538 583 538 679 544 621 646 473 936 687 605 631 560 381 412 164 278 138 12 223 432 865 950 1114 924 935 1193 1088 1130 78
24 10 187 360 430 548 670 632 578 503 622 517 338 613 510 661 775 743 684 598 500 382 333 406 614 498 250 709 507 261 110 157 129 121 98 5 227 7 127 399 339 377 587 374 305 419 529 715 47
133 253 146 179 595 296 489 494 612 603 673 415 458 590 644 763 813 757 668 601 418 257 219 266 387 267 162 343 558 362 192 145 111 97 48 59 219 121 99 270 70 246 67 26 2 0 24 255 195
428 494 526 464 397 46 197 690 650 758 522 469 508 681 730 833 778 671 515 465 253 176 140 251 218 201 210 233 309 294 260 253 123 105 87 88 263 170 85 118 197 145 10 0 0 0 13 112 232
239 204 107 519 565 410 296 692 735 706 507 431 461 608 519 820 789 419 270 214 96 70 76 131 149 152 195 299 254 247 219 337 358 263 130 191 188 94 0 82 149 46 9 0 0 3 6 136 175
9 0 97 130 180 97 446 545 743 569 498 384 322 389 242 476 553 156 95 86 44 18 22 38 64 120 179 290 336 445 246 327 341 314 163 127 208 80 121 12 1 0 0 0 12 17 14 85 101
41 14 0 13 111 14 65 146 613 589 492 447 307 300 310 174 167 150 82 40 13 14 0 0 98 162 230 348 375 165 120 125 111 132 182 487 390 255 265 201 269 120 9 0 1 4 28 7 9
183 4 38 157 204 59 44 177 480 460 496 506 431 345 328 288 166 49 86 16 26 14 7 134 97 251 259 406 222 48 53 140 72 208 391 428 492 499 337 579 602 282 99 79 18 0 0 12 46
13 218 173 224 336 64 66 75 88 310 433 389 308 260 354 413 325 104 6 8 5 0 0 263 416 362 228 273 59 6 13 154 183 426 568 357 125 13 33 761 767 343 206 260 65 37 4 57 199
0 87 150 57 57 125 78 109 111 62 130 121 56 0 72 258 299 231 0 3 9 1 43 251 439 249 131 169 92 88 131 228 227 376 319 290 443 13 657 786 437 357 347 299 170 187 239 301 179
1 40 62 128 300 69 38 176 147 163 104 179 191 29 0 0 0 0 0 9 22 111 92 198 289 194 145 165 97 246 373 297 176 296 413 388 484 530 908 787 526 482 620 465 393 365 330 306 269
0 25 183 145 203 33 117 191 603 700 439 465 428 186 6 0 0 0 7 89 202 241 160 225 146 163 191 160 98 375 634 420 445 681 423 636 835 748 1219 649 457 471 605 549 350 304 253 431 369
0 0 322 264 195 57 60 35 93 527 365 116 86 40 7 0 0 0 0 113 232 229 77 272 150 199 249 45 166 552 572 603 266 600 591 933 1222 1153 995 682 856 497 428 627 690 624 418 303 492
0 429 485 271 1 36 29 10 0 420 454 123 84 97 112 194 1 0 0 0 168 164 15 233 165 300 293 80 259 381 489 379 254 411 687 991 958 1125 1274 1132 594 559 518 720 692 705 775 610 635
1 117 0 0 0 0 0 0 0 141 220 544 606 330 391 315 60 0 0 0 66 92 77 356 235 386 265 222 485 579 646 488 472 965 623 685 1083 901 1319 1026 837 384 517 756 738 682 684 574 462
0 0 0 0 26 0 0 0 0 0 41 146 394 395 168 241 84 0 0 3 47 38 172 518 251 388 279 305 498 798 1032 853 545 691 1285 1171 1284 985 1089 940 553 341 760 561 369 464 524 235 557
0 0 0 0 7 59 0 15 8 0 0 194 113 94 185 174 92 0 0 0 30 60 123 516 395 267 284 315 356 526 813 1108 569 534 1333 1398 1414 1350 1034 1217 694 657 419 767 549 314 475 237 96
0 0 0 12 0 40 0 0 0 0 22 185 109 27 105 77 93 24 0 0 7 35 104 222 615 332 312 427 446 423 692 894 1514 1253 1147 1497 1449 1558 1269 1105 1253 933 656 682 600 429 349 464 143
0 0 0 0 30 12 0 0 27 126 27 80 251 296 266 17 96 42 15 6 28 44 84 150 462 682 646 603 728 753 735 833 1064 1703 1373 1210 1523 1460 1681 1129 1439 1433 1396 584 618 484 441 478 129
0 0 0 0 0 0 0 155 241 388 193 122 281 181 261 15 0 37 93 18 121 134 192 351 301 511 752 918 1049 1055 1008 1037 1009 1143 1387 1070 1002 1106 1449 1205 1396 1754 1838 1292 716 742 870 476 141
0 0 0 0 0 0 0 414 235 510 271 164 362 446 272 18 14 751 246 15 131 237 301 419 530 610 668 989 1112 1516 1499 1428 1380 1313 1240 1255 1006 962 1538 1428 1364 1791 2018 1664 1262 1076 1423 1076 710